Weather in Los Angeles

United States     34°02′54″N   118°15′10″W
temp.,
°C
wind,
m/s
gust,
m/s
humid.,
%
clouds,
%
prec.,
mm/h
press.,
hPa
HPBL,
m
18 may, tue
tue1823:00+16sw227640 0.0 1016517
02:00+16sse227566 0.0 1016548
05:00+16s117664 0.0 1015463
08:00+17sw116915 0.0 1016622
11:00+21wsw43520 0.0 1015842
14:00+22wsw54490 0.0 1013623
17:00+22wsw43510 0.0 1011504
20:00+21ssw22570 0.0 1011372
19 may, wed
wed1923:00+18sse33670 0.0 1012322
02:00+18sse22721 0.0 1011253
05:00+16s23780 0.0 1011257
08:00+17ssw22731 0.0 1012471
11:00+22ssw325325 0.0 1011880
14:00+24sw54430 0.0 10101024
17:00+23sw434515 0.0 1008875
20:00+21ssw33541 0.0 1009533
20 may, thu
thu2023:00+19se33600 0.0 1010589
02:00+17sse457136 0.0 1010723
05:00+16se457249 0.0 1010708
08:00+17se446692 0.0 1011882
11:00+18sse2257100 0.0 10121183
14:00+22sw43420 0.0 10101515
17:00+21wsw65460 0.0 1009943
20:00+19sw33400 0.0 1010652
21 may, fri
fri2123:00+18ese33440 0.0 1011675
02:00+17sse32550 0.0 1011587
05:00+16sse22610 0.0 1012473
08:00+17se32540 0.0 1013868
11:00+20ssw44340 0.0 10141822
14:00+22wsw75310 0.0 10131604
17:00+20sw77350 0.0 10131110
20:00+17sw77521 0.0 1014614
22 may, sat
sat2223:00+16se33530 0.0 1015568
02:00+15se44590 0.0 1016761
05:00+15ese566612 0.0 1016916
08:00+15ese55563 0.0 10181072
11:00+19se44420 0.0 10171376
14:00+21ssw53385 0.0 10161534
17:00+20sw64451 0.0 10151022
20:00+17sw43565 0.0 1016745